CW4352 Weather Reports


Display with metric or nautical units.
time (UTC)temp
F
wind
direction
speed
MPH
gust
MPH
rain 1hr
in
rain 24hr
in
rain mn
in
humidity
%
barometer
mb
20200219200704 50 25 3.0 3.0 0.00 0.00 0.00 45 1015.4
20200219193703 52 296 3.0 5.0 0.00 0.00 0.00 35 1015.4
20200219193204 52 307 3.0 6.0 0.00 0.00 0.00 37 1015.4
20200219191703 52 292 5.0 7.0 0.00 0.00 0.00 40 1015.0
20200219191203 52 285 5.0 6.0 0.00 0.00 0.00 43 1015.0
20200219190203 52 275 3.0 6.0 0.00 0.00 0.00 47 1015.0
20200219184704 51 271 3.0 5.0 0.00 0.00 0.00 53 1014.9
20200219183703 51 270 3.0 5.0 0.00 0.00 0.00 54 1014.9
20200219181703 52 276 3.0 5.0 0.00 0.00 0.00 58 1014.9
20200219181205 51 271 3.0 5.0 0.00 0.00 0.00 58 1013.8
20200219180704 51 270 3.0 5.0 0.00 0.00 0.00 59 1013.8
20200219180203 51 273 3.0 5.0 0.00 0.00 0.00 60 1013.8
20200219174703 51 254 3.0 8.0 0.00 0.00 0.00 65 1013.8
20200219174203 51 261 6.0 7.0 0.00 0.00 0.00 65 1013.8
20200219173703 51 264 6.0 8.0 0.00 0.00 0.00 66 1013.8
20200219173203 51 283 5.0 6.0 0.00 0.00 0.00 65 1013.8
20200219171703 52 284 2.0 3.0 0.00 0.00 0.00 64 1013.8
20200219171204 53 284 3.0 3.0 0.00 0.00 0.00 63 1013.8
20200219170704 53 284 2.0 5.0 0.00 0.00 0.00 63 1013.8
20200219170203 53 284 3.0 6.0 0.00 0.00 0.00 63 1013.8
20200219164703 53 323 2.0 3.0 0.00 0.00 0.00 62 1013.8
20200219164203 54 323 3.0 3.0 0.00 0.00 0.00 61 1013.4
20200219163703 54 327 1.0 3.0 0.00 0.00 0.00 61 1013.4
20200219161703 54 327 3.0 5.0 0.00 0.00 0.00 60 1013.4
20200219161204 55 307 3.0 5.0 0.00 0.00 0.00 60 1013.4
20200219160703 55 317 5.0 7.0 0.00 0.00 0.00 60 1013.4
20200219160203 55 332 3.0 7.0 0.00 0.00 0.00 60 1013.4
20200219154704 55 321 5.0 9.0 0.00 0.00 0.00 60 1013.4
20200219154203 55 340 3.0 7.0 0.00 0.00 0.00 60 1013.3
20200219153703 55 338 2.0 6.0 0.00 0.00 0.00 61 1013.3
20200219153203 55 354 3.0 6.0 0.00 0.00 0.00 60 1013.3
20200219151703 55 331 3.0 8.0 0.00 0.00 0.00 59 1013.5
20200219151204 55 335 3.0 9.0 0.00 0.00 0.00 59 1013.5
20200219150703 55 305 2.0 6.0 0.00 0.00 0.00 61 1013.5
20200219150204 55 280 3.0 10.0 0.00 0.00 0.00 61 1013.5
20200219144203 55 349 6.0 9.0 0.00 0.00 0.00 62 1013.8
20200219143203 55 11 3.0 12.0 0.00 0.00 0.00 63 1013.9
20200219140703 55 332 7.0 12.0 0.00 0.00 0.00 63 1014.2
20200219140203 55 11 5.0 12.0 0.00 0.00 0.00 62 1014.2
20200219133203 55 21 6.0 12.0 0.00 0.00 0.00 63 1014.1
20200219131703 55 8 5.0 9.0 0.00 0.00 0.00 62 1014.4
20200219130203 55 46 3.0 10.0 0.00 0.00 0.00 64 1014.4
20200219124703 55 14 5.0 9.0 0.00 0.00 0.00 65 1014.7
20200219123703 55 24 3.0 7.0 0.00 0.00 0.00 65 1015.0
20200219123203 55 355 5.0 10.0 0.00 0.00 0.00 66 1015.0
20200219121703 55 27 2.0 7.0 0.00 0.00 0.00 67 1015.4
20200219120703 54 19 1.0 6.0 0.00 0.00 0.00 68 1015.4
20200219120203 54 22 2.0 7.0 0.00 0.00 0.00 69 1015.9
20200219114204 54 15 6.0 10.0 0.00 0.00 0.00 71 1015.9
20200219113703 54 20 6.0 9.0 0.00 0.00 0.00 71 1015.9
20200219111703 56 27 4.0 6.0 0.00 0.00 0.00 67 1016.0
20200219110703 55 169 0.0 2.0 0.00 0.00 0.00 65 1016.4
20200219110203 54 169 0.0 3.0 0.00 0.00 0.00 67 1016.4
20200219104703 53 169 0.0 3.0 0.00 0.00 0.00 66 1016.8
20200219104204 53 170 2.0 3.0 0.00 0.00 0.00 66 1016.7
20200219103703 52 171 2.0 6.0 0.00 0.00 0.00 66 1016.7
20200219103204 52 171 1.0 3.0 0.00 0.00 0.00 67 1016.9
20200219101203 51 169 1.0 3.0 0.00 0.00 0.00 69 1017.4
20200219100703 50 169 1.0 3.0 0.00 0.00 0.00 68 1017.4
20200219094204 50 183 1.0 2.0 0.00 0.00 0.00 64 1017.6
20200219093703 50 183 0.0 3.0 0.00 0.00 0.00 66 1017.6
20200219091704 48 183 1.0 3.0 0.00 0.00 0.00 67 1017.7
20200219084704 46 262 1.0 2.0 0.00 0.00 0.00 72 1017.7
20200219084204 46 262 2.0 3.0 0.00 0.00 0.00 72 1017.7
20200219083204 45 262 0.0 3.0 0.00 0.00 0.00 75 1017.7
20200219081204 43 262 3.0 5.0 0.00 0.00 0.00 78 1017.7
20200219080203 42 256 2.0 6.0 0.00 0.00 0.00 80 1017.6
20200219074704 41 234 2.0 3.0 0.00 0.00 0.00 79 1017.6
20200219073703 41 248 2.0 3.0 0.00 0.00 0.00 79 1017.6
20200219073203 41 268 2.0 3.0 0.00 0.00 0.00 79 1017.7
20200219071703 42 244 3.0 3.0 0.00 0.00 0.00 78 1017.6
20200219071204 41 257 3.0 5.0 0.00 0.00 0.00 79 1017.6
20200219070203 40 347 0.0 3.0 0.00 0.00 0.00 88 1017.1
20200219064204 39 0 0.0 0.0 0.00 0.00 0.00 88 1017.1
20200219063704 39 0 0.0 0.0 0.00 0.00 0.00 88 1017.1
20200219063204 39 0 0.0 0.0 0.00 0.00 0.00 88 1017.1
20200219061703 39 0 0.0 0.0 0.00 0.00 0.00 88 1017.1
20200219061203 39 0 0.0 0.0 0.00 0.00 0.00 88 1017.1
20200219060703 39 0 0.0 0.0 0.00 0.00 0.00 88 1017.0
20200219060203 39 0 0.0 1.0 0.00 0.00 0.00 88 1017.0
20200219054204 39 270 3.0 5.0 0.00 0.00 0.00 85 1017.0
20200219053704 39 270 2.0 3.0 0.00 0.00 0.00 86 1017.1
20200219053203 40 270 0.0 3.0 0.00 0.00 0.00 86 1017.1
20200219051204 40 270 2.0 3.0 0.00 0.00 0.00 87 1017.1
20200219050704 41 271 2.0 3.0 0.00 0.00 0.00 87 1017.1
20200219044704 41 278 3.0 5.0 0.00 0.00 0.00 88 1017.1
20200219044203 41 277 2.0 3.0 0.00 0.00 0.00 89 1017.1
20200219043703 40 274 3.0 3.0 0.00 0.00 0.00 89 1017.1
20200219043203 40 265 2.0 3.0 0.00 0.00 0.00 89 1017.1
20200219041204 40 267 2.0 3.0 0.00 0.00 0.00 90 1017.4
20200219040703 39 236 3.0 3.0 0.00 0.00 0.00 89 1017.4
20200219040204 40 219 3.0 5.0 0.00 0.00 0.00 89 1017.4
20200219034703 40 213 2.0 3.0 0.00 0.00 0.00 89 1017.6
20200219034203 41 215 2.0 3.0 0.00 0.00 0.00 89 1017.6
20200219033704 41 259 2.0 3.0 0.00 0.00 0.00 90 1017.7
20200219033203 41 266 2.0 3.0 0.00 0.00 0.00 89 1017.7
20200219031204 41 266 3.0 3.0 0.00 0.00 0.00 90 1017.6
20200219030704 41 271 3.0 3.0 0.00 0.00 0.00 90 1017.6
20200219030203 41 274 3.0 3.0 0.00 0.00 0.00 90 1017.6
20200219024704 42 269 3.0 3.0 0.00 0.00 0.00 90 1017.6
20200219024204 42 268 2.0 3.0 0.00 0.00 0.00 90 1017.8
20200219023703 42 269 2.0 3.0 0.00 0.00 0.00 90 1017.8
20200219023204 42 266 2.0 3.0 0.00 0.00 0.00 90 1017.8
20200219021204 42 268 3.0 3.0 0.00 0.00 0.00 90 1018.1
20200219020203 43 274 3.0 3.0 0.00 0.00 0.00 90 1018.2
20200219014204 43 275 3.0 3.0 0.00 0.00 0.00 90 1018.6
20200219013703 43 274 3.0 3.0 0.00 0.00 0.00 90 1018.7
20200219013203 43 281 3.0 3.0 0.00 0.00 0.00 90 1018.7
20200219010703 44 274 3.0 3.0 0.00 0.00 0.00 91 1018.7
20200219010203 44 256 3.0 5.0 0.00 0.00 0.00 91 1018.7
20200219004714 43 238 3.0 3.0 0.00 0.00 0.00 91 1019.0
20200219004203 43 217 2.0 3.0 0.00 0.00 0.00 91 1019.1
20200219003704 44 254 2.0 3.0 0.00 0.00 0.00 91 1019.1
20200219003204 44 268 3.0 3.0 0.00 0.00 0.00 91 1019.2
20200219001703 44 262 4.0 6.0 0.00 0.00 0.00 91 1019.2
20200219000704 44 265 3.0 3.0 0.00 0.00 0.00 91 1019.2
20200219000203 44 250 3.0 3.0 0.00 0.00 0.00 91 1019.5
20200218234703 44 235 3.0 3.0 0.00 0.00 0.00 91 1019.5
20200218233704 44 216 2.0 3.0 0.00 0.00 0.00 91 1019.3
20200218233203 45 252 1.0 3.0 0.00 0.00 0.00 91 1019.6
20200218231703 45 285 2.0 3.0 0.00 0.00 0.00 92 1019.4
20200218231204 45 273 2.0 3.0 0.00 0.00 0.00 92 1019.4
20200218230706 45 252 2.0 3.0 0.00 0.00 0.00 91 1019.4
20200218230203 45 255 2.0 3.0 0.00 0.00 0.00 91 1019.4
20200218224703 45 256 1.0 3.0 0.00 0.00 0.00 91 1019.4
20200218224204 45 256 2.0 3.0 0.00 0.00 0.00 91 1019.5
20200218223203 45 281 1.0 3.0 0.00 0.00 0.00 91 1019.7
20200218221703 46 276 2.0 3.0 0.00 0.00 0.00 91 1019.9
20200218220703 46 272 2.0 3.0 0.00 0.00 0.00 91 1019.9
20200218213703 46 275 3.0 3.0 0.00 0.00 0.00 90 1020.0
20200218213204 46 275 2.0 3.0 0.00 0.00 0.00 90 1020.0
20200218211704 47 262 2.0 3.0 0.00 0.00 0.00 89 1020.0
20200218211204 47 262 2.0 3.0 0.00 0.00 0.00 89 1020.0
20200218204203 48 257 2.0 3.0 0.00 0.00 0.00 88 1020.0
20200218201703 48 254 2.0 3.0 0.00 0.00 0.00 87 1020.0
20200218201204 48 254 2.0 3.0 0.00 0.00 0.00 87 1020.0